K42C Weather Reports


time (UTC)temp
F
wind
direction
speed
knots
gust
knots
rain 1hr
in
rain 24hr
in
rain mn
in
humidity
%
barometer
mb
20260509101940 52 187 1.7 4.3 0.00 0.00 0.00 98 964.8
20260509101259 52 195 4.3 4.3 0.00 0.00 0.00 98 964.9
20260509100621 51 217 3.5 4.3 0.00 0.00 0.00 98 965.2
20260509095940 51 145 0.9 0.0 0.00 0.00 0.00 98 965.2
20260509095305 51 160 4.3 5.2 0.00 0.00 0.00 98 965.1
20260509094622 51 160 6.1 2.6 0.00 0.00 0.00 97 965.1
20260509093944 50 162 6.1 6.1 0.00 0.00 0.00 97 965.1
20260509093304 50 160 5.2 5.2 0.00 0.00 0.00 96 965.4
20260509092626 50 150 3.5 3.5 0.00 0.00 0.00 96 965.6
20260509091945 50 150 1.7 0.0 0.00 0.00 0.00 95 965.6
20260509091308 50 162 4.3 0.0 0.00 0.00 0.00 95 965.7
20260509090627 51 139 0.9 5.2 0.00 0.00 0.00 95 965.7
20260509085949 51 174 2.6 4.3 0.00 0.00 0.00 94 965.7
20260509085308 51 170 2.6 4.3 0.00 0.00 0.00 93 965.9
20260509084631 51 174 6.1 4.3 0.00 0.00 0.00 92 965.8
20260509083950 52 177 5.2 5.2 0.00 0.00 0.00 90 965.7
20260509083312 53 165 7.8 7.8 0.00 0.00 0.00 87 965.9
20260509082631 53 191 6.1 7.0 0.00 0.00 0.00 85 966.0
20260509081954 52 177 1.7 3.5 0.00 0.00 0.00 83 966.4
20260509081313 52 198 3.5 6.1 0.00 0.00 0.00 81 966.3
20260509080636 52 224 6.1 4.3 0.00 0.00 0.00 80 966.6
20260509075955 52 191 3.5 5.2 0.00 0.00 0.00 77 966.6
20260509074636 52 179 0.0 0.0 0.00 0.00 0.00 74 966.9
20260509073959 51 190 6.1 0.0 0.00 0.00 0.00 73 967.0
20260509073318 50 162 0.0 0.0 0.00 0.00 0.00 69 967.1
20260509072640 50 162 0.0 0.0 0.00 0.00 0.00 64 967.2
20260509071855 49 162 0.0 0.0 0.00 0.00 0.00 57 967.3
20260509071322 49 162 0.0 0.0 0.00 0.00 0.00 57 967.3
20260509070641 49 162 0.0 0.0 0.00 0.00 0.00 55 967.5
20260509070003 49 162 0.0 0.0 0.00 0.00 0.00 54 967.5
20260509065322 50 162 0.0 0.0 0.00 0.00 0.00 54 967.7
20260509064645 50 162 0.0 0.0 0.00 0.00 0.00 53 967.8
20260509064004 50 162 0.0 0.0 0.00 0.00 0.00 53 967.9
20260509063326 50 162 0.0 0.0 0.00 0.00 0.00 53 967.9
20260509062645 50 162 0.0 2.6 0.00 0.00 0.00 52 968.0
20260509062008 50 150 0.0 0.0 0.00 0.00 0.00 52 968.1
20260509060649 49 146 0.0 0.0 0.00 0.00 0.00 55 968.3
20260509060008 48 143 3.5 0.0 0.00 0.00 0.00 55 968.3
20260509055331 47 183 0.0 0.0 0.00 0.00 0.00 59 968.5
20260509054650 45 165 0.0 0.0 0.00 0.00 0.00 64 968.4
20260509054012 45 165 0.0 0.0 0.00 0.00 0.00 64 968.5
20260509053331 45 165 0.0 0.0 0.00 0.00 0.00 63 968.5
20260509052653 44 165 0.0 0.0 0.00 0.00 0.00 64 968.5
20260509052012 44 165 0.0 0.0 0.00 0.00 0.00 64 968.6
20260509051335 45 165 0.0 0.0 0.00 0.00 0.00 65 968.6
20260509050654 45 165 0.0 0.0 0.00 0.00 0.00 63 968.7
20260509050016 45 165 0.0 0.0 0.00 0.00 0.00 62 968.7
20260509045335 46 165 0.0 0.0 0.00 0.00 0.00 61 968.7
20260509044658 46 165 0.0 0.0 0.00 0.00 0.00 59 968.7
20260509044017 46 165 0.0 0.0 0.00 0.00 0.00 58 968.8
20260509043339 47 165 0.0 0.0 0.00 0.00 0.00 58 968.7
20260509042658 47 165 0.0 0.0 0.00 0.00 0.00 57 968.8
20260509042021 48 165 0.0 0.0 0.00 0.00 0.00 56 968.8
20260509041340 48 165 0.0 0.0 0.00 0.00 0.00 55 968.9
20260509040702 49 165 0.0 0.0 0.00 0.00 0.00 54 969.0
20260509040021 49 165 0.0 0.0 0.00 0.00 0.00 54 969.1
20260509034702 50 165 0.0 0.0 0.00 0.00 0.00 52 969.2
20260509034025 50 165 0.0 0.0 0.00 0.00 0.00 52 969.3
20260509033344 50 165 0.0 0.0 0.00 0.00 0.00 53 969.3
20260509032025 49 165 0.0 0.0 0.00 0.00 0.00 56 969.4
20260509031348 48 165 0.0 0.0 0.00 0.00 0.00 58 969.5
20260509030707 47 165 0.0 0.0 0.00 0.00 0.00 59 969.5
20260509030029 47 165 0.0 0.0 0.00 0.00 0.00 58 969.7
20260509024711 48 165 0.0 0.0 0.00 0.00 0.00 55 969.8
20260509024029 48 165 0.0 0.0 0.00 0.00 0.00 55 969.7
20260509023352 49 165 0.0 0.0 0.00 0.00 0.00 54 969.7
20260509022711 49 165 0.0 0.0 0.00 0.00 0.00 53 969.7
20260509022033 49 165 0.0 0.0 0.00 0.00 0.00 51 969.6
20260509020715 50 165 0.0 0.0 0.00 0.00 0.00 48 969.6
20260509020034 51 165 0.0 0.0 0.00 0.00 0.00 47 969.6
20260509015356 52 165 0.0 0.0 0.00 0.00 0.00 46 969.6
20260509014715 52 165 0.0 0.0 0.00 0.00 0.00 46 969.5
20260509014038 53 165 0.0 0.0 0.00 0.00 0.00 45 969.4
20260509013357 54 165 0.0 0.0 0.00 0.00 0.00 44 969.3
20260509012719 55 165 0.0 0.0 0.00 0.00 0.00 43 969.2
20260509012038 56 165 0.0 0.0 0.00 0.00 0.00 42 969.1
20260509011400 57 165 0.0 0.0 0.00 0.00 0.00 40 969.2
20260509010719 57 165 0.0 0.0 0.00 0.00 0.00 39 969.1
20260509005401 58 165 0.0 0.0 0.00 0.00 0.00 39 969.2
20260509004723 58 124 0.0 0.0 0.00 0.00 0.00 39 969.1
20260509004042 58 187 0.0 0.0 0.00 0.00 0.00 39 969.1
20260509003405 58 229 0.0 4.3 0.00 0.00 0.00 39 969.1
20260509002724 58 159 0.9 7.0 0.00 0.00 0.00 38 969.0
20260509002047 59 152 1.7 0.0 0.00 0.00 0.00 38 969.0
20260509001405 59 191 2.6 0.0 0.00 0.00 0.00 37 968.9
20260509000728 59 155 1.7 2.6 0.00 0.00 0.00 37 968.9
20260509000047 60 229 5.2 2.6 0.00 0.00 0.00 37 968.9
20260508235410 60 193 0.9 0.0 0.00 0.00 0.00 37 968.9
20260508234729 60 221 5.2 3.5 0.00 0.00 0.00 36 968.9
20260508234051 60 233 0.0 0.0 0.00 0.00 0.00 37 969.0
20260508233410 61 218 3.5 2.6 0.00 0.00 0.00 36 969.0
20260508232733 61 179 0.0 4.3 0.00 0.00 0.00 37 969.0
20260508232052 61 226 3.5 0.0 0.00 0.00 0.00 37 969.1
20260508231414 61 243 1.7 0.0 0.00 0.00 0.00 36 969.1
20260508230733 61 221 0.0 0.0 0.00 0.00 0.00 37 969.2
20260508225415 61 217 6.1 7.8 0.00 0.00 0.00 35 969.4
20260508224738 61 264 2.6 6.1 0.00 0.00 0.00 36 969.5
20260508224057 61 212 6.1 5.2 0.00 0.00 0.00 36 969.6
20260508223419 61 229 7.0 7.8 0.00 0.00 0.00 36 969.5
20260508222738 60 200 0.9 0.0 0.00 0.00 0.00 37 969.5
20260508222101 60 246 3.5 4.3 0.00 0.00 0.00 37 969.5
20260508221420 61 212 1.7 3.5 0.00 0.00 0.00 37 969.3
20260508220742 61 221 2.6 2.6 0.00 0.00 0.00 36 969.4
20260508215424 61 280 5.2 0.0 0.00 0.00 0.00 36 969.3
20260508214743 62 217 1.7 4.3 0.00 0.00 0.00 36 969.3
20260508213425 62 235 5.2 2.6 0.00 0.00 0.00 34 969.2
20260508212747 62 231 3.5 7.8 0.00 0.00 0.00 33 969.3
20260508211429 62 280 1.7 2.6 0.00 0.00 0.00 34 969.2
20260508210748 62 311 0.9 4.3 0.00 0.00 0.00 33 969.3
20260508210111 63 188 4.3 2.6 0.00 0.00 0.00 32 969.4
20260508205430 63 330 5.2 1.7 0.00 0.00 0.00 33 969.3
20260508204752 63 252 5.2 4.3 0.00 0.00 0.00 32 969.5
20260508204111 63 291 2.6 6.1 0.00 0.00 0.00 32 969.6
20260508203434 63 243 7.0 4.3 0.00 0.00 0.00 33 969.6
20260508202753 63 226 1.7 0.0 0.00 0.00 0.00 34 969.6
20260508202117 62 262 3.5 8.7 0.00 0.00 0.00 33 969.8
20260508201435 62 267 4.3 4.3 0.00 0.00 0.00 33 969.6
20260508200757 61 205 7.0 5.2 0.00 0.00 0.00 35 969.8
20260508195439 62 114 6.1 3.5 0.00 0.00 0.00 34 969.8
20260508194121 62 274 4.3 8.7 0.00 0.00 0.00 34 970.0
20260508193440 62 285 0.0 0.0 0.00 0.00 0.00 35 970.0
20260508192802 62 301 3.5 7.0 0.00 0.00 0.00 34 970.1
20260508192121 62 276 6.1 2.6 0.00 0.00 0.00 33 970.2
20260508191444 62 266 7.0 2.6 0.00 0.00 0.00 36 970.2
20260508191342 62 246 3.5 4.3 0.00 0.00 0.00 35 970.3
20260508190803 62 246 3.5 4.3 0.00 0.00 0.00 35 970.3
20260508190126 62 226 0.9 0.0 0.00 0.00 0.00 37 970.4
20260508185445 62 156 5.2 9.6 0.00 0.00 0.00 35 970.4
20260508184808 62 308 2.6 0.0 0.00 0.00 0.00 35 970.4
20260508184127 62 308 1.7 6.1 0.00 0.00 0.00 36 970.5
20260508183449 61 294 1.7 0.0 0.00 0.00 0.00 36 970.5
20260508182131 61 0 4.3 3.5 0.00 0.00 0.00 36 970.7
20260508181450 61 259 3.5 0.0 0.00 0.00 0.00 38 970.9
20260508180813 61 207 0.0 0.0 0.00 0.00 0.00 36 970.8
20260508180132 61 174 5.2 4.3 0.00 0.00 0.00 35 971.0
20260508175455 61 309 6.1 6.1 0.00 0.00 0.00 36 971.0
20260508174814 61 242 6.1 7.0 0.00 0.00 0.00 36 971.2
20260508174136 60 221 8.7 7.0 0.00 0.00 0.00 40 971.1
20260508173456 60 195 5.2 7.0 0.00 0.00 0.00 39 971.3
20260508172818 60 249 6.1 1.7 0.00 0.00 0.00 39 971.4
20260508172137 60 205 7.0 7.8 0.00 0.00 0.00 40 971.6
20260508171500 60 207 0.9 5.2 0.00 0.00 0.00 40 971.6
20260508170819 60 152 7.0 7.0 0.00 0.00 0.00 39 971.7
20260508170142 60 274 1.7 4.3 0.00 0.00 0.00 41 971.7
20260508165501 59 283 6.1 5.2 0.00 0.00 0.00 41 971.8
20260508164824 59 249 5.2 4.3 0.00 0.00 0.00 41 971.8
20260508164143 59 238 3.5 4.3 0.00 0.00 0.00 42 971.8
20260508163506 59 200 9.6 6.1 0.00 0.00 0.00 41 972.1
20260508162825 59 201 7.0 9.6 0.00 0.00 0.00 41 972.2
20260508162148 59 225 7.8 3.5 0.00 0.00 0.00 42 972.1
20260508161507 58 193 3.5 7.0 0.00 0.00 0.00 41 972.2
20260508160829 58 243 3.5 6.1 0.00 0.00 0.00 41 972.2
20260508160149 58 246 3.5 8.7 0.00 0.00 0.00 41 972.3
20260508155511 58 262 6.1 7.8 0.00 0.00 0.00 42 972.3
20260508154830 58 267 2.6 3.5 0.00 0.00 0.00 42 972.4
20260508154153 57 215 0.0 3.5 0.00 0.00 0.00 43 972.6
20260508152835 57 194 7.8 0.0 0.00 0.00 0.00 44 972.6
20260508152154 57 263 3.5 5.2 0.00 0.00 0.00 44 972.6
20260508151517 56 203 1.7 7.0 0.00 0.00 0.00 44 972.7
20260508150836 56 139 2.6 1.7 0.00 0.00 0.00 48 972.8
20260508150159 56 127 3.5 4.3 0.00 0.00 0.00 48 972.9
20260508145518 56 233 2.6 4.3 0.00 0.00 0.00 48 972.9
20260508144841 55 194 5.2 0.0 0.00 0.00 0.00 52 973.1
20260508143523 54 177 6.1 7.8 0.00 0.00 0.00 51 973.3
20260508142842 54 186 5.2 0.0 0.00 0.00 0.00 54 973.3
20260508142205 53 201 3.5 0.9 0.00 0.00 0.00 56 973.4
20260508141524 53 179 3.5 5.2 0.00 0.00 0.00 58 973.4
20260508140847 53 159 5.2 3.5 0.00 0.00 0.00 58 973.5
20260508140206 52 152 4.3 7.8 0.00 0.00 0.00 61 973.5
20260508135528 52 183 3.5 7.0 0.00 0.00 0.00 65 973.6
20260508134848 51 297 2.6 0.0 0.00 0.00 0.00 68 973.7
20260508134210 50 190 3.5 6.1 0.00 0.00 0.00 71 974.0
20260508133530 49 191 4.3 6.1 0.00 0.00 0.00 73 974.0
20260508132852 49 225 4.3 0.0 0.00 0.00 0.00 75 974.0
20260508132212 48 203 4.3 1.7 0.00 0.00 0.00 77 974.2
20260508131534 47 205 0.0 0.0 0.00 0.00 0.00 79 974.3
20260508130853 47 181 4.3 0.0 0.00 0.00 0.00 80 974.5
20260508130216 46 159 0.9 0.0 0.00 0.00 0.00 82 974.5
20260508125535 45 193 0.0 0.0 0.00 0.00 0.00 85 974.5
20260508124858 44 187 0.0 0.0 0.00 0.00 0.00 89 974.8
20260508124217 43 187 0.0 0.0 0.00 0.00 0.00 92 974.8
20260508123540 42 165 0.0 0.0 0.00 0.00 0.00 95 974.8
20260508122859 40 170 0.0 0.0 0.00 0.00 0.00 98 974.8
20260508114227 32 339 0.0 0.0 0.00 0.00 0.00 100 975.3
20260508112909 31 339 0.0 0.0 0.00 0.00 0.00 100 975.4
20260508111551 30 339 0.0 0.0 0.00 0.00 0.00 100 975.4
20260508110232 29 339 0.0 0.0 0.00 0.00 0.00 100 975.5
20260508105551 29 339 0.0 0.0 0.00 0.00 0.00 100 975.4
20260508104914 29 339 0.0 0.0 0.00 0.00 0.00 100 975.4
20260508104233 29 339 0.0 0.0 0.00 0.00 0.00 100 975.3
20260508103556 29 339 0.0 0.0 0.00 0.00 0.00 100 975.3